Location: Byszew
(52.1813°N, 19.2693°E)
Time: 01:52:43
(UTC+00:00)

BREEZE-M DEB (TANK) - Pass Details

Date: 03 March 2021
Orbit: 351 x 16374 km, 49.4° (Epoch: 11 April)

Event Time Altitude Azimuth Distance (km) Brightness Sun altitude
Rises 17:20:25 0° 219° (SW) 4,870 7.7 -9.1°
Reaches altitude 10° 17:25:33 10° 203° (SSW) 2,535 6.0 -9.9°
Maximum altitude 17:28:48 17° 161° (SSE) 1,420 4.2 -10.4°
Enters shadow 17:30:25 12° 124° (ESE) 1,411 3.9 -10.6°
